Вернуться в каталог

STARLINK-32854

АктивенСвязьVLEO
NORAD 62816·PAYLOAD·🇺🇸 United States

Запущен Jan 24, 2025 с Vandenberg Space Force Base

Loading…

Ближайшие Пролёты (ближайшие 24 часа)

TLE

СвежийSource: CelesTrak SupGP

Эпоха: Sep 15, 2026, 02:59 UTC

1 62816C 25018L   26258.12479167  .00031826  00000+0  94041-3 0  2587
2 62816  53.1572 147.1553 0001330  83.5992  57.9752 15.34370746    13

Отслеживайте STARLINK-32854 в реальном времени с AllMySat

Download on the App Store